Regional Weather Roundup
Issued by NWS State College, PA

Home | Current Version | Previous Version | Text Only | Print | Product List | Glossary On
Versions: 1 2 3 4 5 6 7 8 9 10 11 12 13 14 15 16 17 18 19 20 21 22 23 24 25 26 27 28 29 30 31 32 33 34 35 36 37 38 39 40 41 42 43 44 45 46 47 48 49 50
000
ASUS41 KCTP 171110
RWRCTP
PHLRWRCTP ALL

REGIONAL WEATHER ROUNDUP
NATIONAL WEATHER SERVICE STATE COLLEGE PA
600 AM EST WED JAN 17 2018

Note: "fair" indicates few or no clouds below 12,000 feet with no
significant weather and/or obstructions to visibility.

* = STATION THAT DOES NOT REPORT PRECIPITATION /E.G. RAIN...SNOW...ETC/
    THUNDER OR FOG.

PAZ002>004-007>009-013>016-020>023-029>032-171200-
WESTERN PENNSYLVANIA

CITY           SKY/WX    TMP DP  RH WIND       PRES   REMARKS
ERIE           LGT SNOW   4  -1  80 S12       30.45S WCI -12
MEADVILLE      CLOUDY     0  -2  91 SW7       30.40R WCI -13
FRANKLIN*      LGT SNOW   1  -2  87 SW6       30.39S FOG     WCI -10
NEW CASTLE     FLURRIES   1  -1  91 CALM      30.47S
BEAVER COUNTY  NOT AVBL
BUTLER*        FLURRIES   3   0  87 W3        30.45R
PITTSBURGH INT FLURRIES   3   0  87 W6        30.45R WCI  -8
PITTSBURGH     CLOUDY     4  -1  80 SW6       30.44R WCI  -7
INDIANA*       CLOUDY     5   3  92 W7        30.46R WCI  -7
LATROBE        CLOUDY     7   1  78 W6        30.47R WCI  -3
WASHINGTON CO* FLURRIES   6   2  83 SW5       30.49R WCI  -3
$$

PAZ004>006-010>012-017>019-024>028-033>037-041-042-045-046-049>053-171200-
CENTRAL PENNSYLVANIA

CITY           SKY/WX    TMP DP  RH WIND       PRES   REMARKS
BRADFORD       CLOUDY     5   3  91 SW7       30.29R WCI  -7
DUBOIS         CLOUDY     1  -3  83 W13       30.34S FOG     WCI -17
CLEARFIELD     FAIR       4   0  83 W3        30.37S
JOHNSTOWN      LGT SNOW   5   2  87 NW12      30.29R FOG     WCI -11
ALTOONA        CLOUDY    12   5  73 NW13      30.35R WCI  -3
STATE COLLEGE  CLOUDY    10   3  72 NW6       30.38R WCI   1
WILLIAMSPORT   CLOUDY    20  12  71 W17       30.37R WCI   5
SELINSGROVE    CLOUDY    33  11  39 VRB7      30.40R
FT INDIANTOWN  LGT SNOW  23  23 100 NW10G18   30.34R FOG     WCI  12
CAPITAL CITY   LGT SNOW  24  18  77 W13       30.37R WCI  12
HARRISBURG     LGT SNOW  24  20  84 NW14      30.36R FOG     WCI  12
YORK           LGT SNOW  23  20  88 NW10      30.35R FOG     WCI  12
$$

PAZ038>040-043-044-047-048-054-055-060>062-067>071-171200-
EASTERN PENNSYLVANIA

CITY           SKY/WX    TMP DP  RH WIND       PRES   REMARKS
SCRANTON       LGT SNOW  26  26 100 SW7       30.27F VSB 3/4
MOUNT POCONO   LGT SNOW  25  24  96 NW13      30.19S FOG     WCI  14
ALLENTOWN      LGT SNOW  31  27  85 W8        30.29R FOG
QUAKERTOWN*    CLOUDY    32  28  86 MISG      30.28R
READING        LGT SNOW N/A N/A N/A NW7       30.31S
LANCASTER      LGT SNOW  27  24  89 NW14      30.33R FOG
COATESVILLE    LGT SNOW  28  28 100 NW10      30.29S
POTTSTOWN      LGT SNOW  29  29 100 NW6       30.30S VSB 1
BLUE BELL      CLOUDY    32  32 100 CALM      30.29S
DOYLESTOWN     FLURRIES  32  31  96 VRB5      30.26S
WILLOW GROVE   NOT AVBL
NORTH PHILA    LGT SNOW  35  32  88 NW7       30.29R FOG
PHILADELPHIA   LGT SNOW  34  31  88 NW8       30.29S FOG
$$




USA.gov is the U.S. government's official web portal to all federal, state and local government web resources and services.